Weather Roundup
Issued by NWS Corpus Christi, TX

Home | Current Version | Previous Version | Text Only | Print | Product List | Glossary On
Versions: 1 2 3 4 5 6 7 8 9 10 11 12 13 14 15 16 17 18 19 20 21 22 23 24 25 26 27 28 29 30 31 32 33 34 35 36 37 38 39 40 41 42 43 44 45 46 47 48 49 50
401
ASUS44 KCRP 280610
HRRCRP

SOUTH TEXAS REGIONAL WEATHER ROUNDUP
NATIONAL WEATHER SERVICE CORPUS CHRISTI TX
100 AM CDT WED SEP 28 2016


TXZ229>244-280700-
...CORPUS CHRISTI AREA OBSERVATIONS...

CITY           SKY/WX    TMP DP  RH WIND       PRES   REMARKS
CORPUS CHRISTI PTCLDY    74  69  85 N10       30.00F
NAS CORPUS CHR PTCLDY    77  71  82 N14       30.00S
ROCKPORT       CLEAR     74  68  81 N10       30.00S
KINGSVILLE NAS CLEAR     72  72 100 NW8       30.01S
ALICE          CLEAR     72  69  90 NW7       30.02S
FALFURRIAS     CLEAR     74  69  86 NW6       30.01F
$$

...VICTORIA AREA OBSERVATIONS...

CITY           SKY/WX    TMP DP  RH WIND       PRES   REMARKS
VICTORIA       CLEAR     68  66  93 NW7       30.02S
BEEVILLE       FAIR      70  70  99 N5        30.03S
PLEASANTON     CLEAR     69  67  92 CALM      30.05F
SAN ANTONIO    PTCLDY    68  64  87 NW6       30.05F
$$

...LAREDO AREA OBSERVATIONS...

CITY           SKY/WX    TMP DP  RH WIND       PRES   REMARKS
LAREDO         CLEAR     69  65  86 W5        30.06F
COTULLA        MOCLDY    73  69  87 CALM      30.05F
DEL RIO        CLOUDY    67  60  78 CALM      30.07F
MCALLEN        PTCLDY    73  66  78 NW8       30.02F
HEBBRONVILLE   CLOUDY    70  66  88 NW5       30.06S
$$

...OTHER TEXAS OBSERVATIONS...

CITY           SKY/WX    TMP DP  RH WIND       PRES   REMARKS
BROWNSVILLE    LGT RAIN  74  71  91 NW9       29.99S
HOUSTON        PTCLDY    72  65  78 N5        30.01S
COL. STATION   CLEAR     70  62  76 N3        30.03S
AUSTIN         CLEAR     65  64  97 CALM      30.04F
WACO           PTCLDY    60  58  92 W5        30.04F
FORT WORTH     PTCLDY    65  51  60 W9        30.02S
WICHITA FALLS  CLOUDY    61  51  70 SW12      30.03S
LUBBOCK        PTCLDY    59  44  57 SW5       30.13F
EL PASO        PTCLDY    64  50  60 E5        30.16R
$$

...MARINE OBSERVATIONS...

STATION/POSITION TIME  SKY/WX   TEMP    WIND        PRES    VSBY  WAVE   SWELL
                                AIR SEA DIR/SP/G                  HT/PER HT/PER
                 (UTC)          (F)     (DEG/KT/KT) (MB)    (MI)  (FT/S) (FT/S)
PORT ARANSAS     0500            77 84  340/  8/ 10 1015.7F
BUOY 90 E PORT A 0550            82 86   50/  8/ 10 1014.7R         3/ 6   2/ 6
BUOY 45 SE BAFFI 0550            82 86  360/ 12/ 17 1014.4R         3/ 6   2/ 6
BUOY 200 E PT IS 0550            83 87   60/ 10/ 12 1012.9F         2/ 5   2/ 5
BUOY 15 E GALVES 0550            80 85  350/ 14/ 16 1015.1F         2/ 6   2/ 6
$$




USA.gov is the U.S. government's official web portal to all federal, state and local government web resources and services.